This is the latest recevied weather packets stored in our database for station/object N5YHM-13. If no packets are shown the sender has not sent any weather packets the latest 10 day(s).
| Time | Temp. | Humidity | Pressure | Rain* | Wind** | Luminosity | Snow |
|---|---|---|---|---|---|---|---|
| 1787782435 | 32.78° C | 74% | 1014.7 hPa | 0 mm | - | 9 W/m² | - |
| 1787782130 | 33.33° C | 73% | 1014.9 hPa | 0 mm | - | 11 W/m² | - |
| 1787781825 | 33.33° C | 73% | 1015 hPa | 0 mm | - | 13 W/m² | - |
| 1787781522 | 33.33° C | 73% | 1015 hPa | 0 mm | - | 12 W/m² | - |
| 1787781217 | 32.78° C | 74% | 1015 hPa | 0 mm | - | 11 W/m² | - |
| 1787780914 | 32.78° C | 77% | 1015.1 hPa | 0 mm | - | 12 W/m² | - |
| 1787780610 | 32.78° C | 77% | 1014.9 hPa | 0 mm | - | 13 W/m² | - |
| 1787780305 | 32.78° C | 77% | 1014.9 hPa | 0 mm | - | 10 W/m² | - |
| 1787780001 | 32.78° C | 74% | 1015.2 hPa | 0 mm | - | 10 W/m² | - |
| 1787779696 | 32.78° C | 76% | 1015.2 hPa | 0 mm | - | 13 W/m² | - |
| 1787779395 | 32.78° C | 72% | 1015.4 hPa | 0 mm | - | 13 W/m² | - |
| 1787779090 | 32.78° C | 71% | 1015.2 hPa | 0 mm | - | 14 W/m² | - |
| 1787778789 | 33.33° C | 68% | 1015.5 hPa | 0 mm | - | 11 W/m² | - |
| 1787778485 | 33.33° C | 67% | 1015.6 hPa | 0 mm | - | 15 W/m² | - |
| 1787778181 | 33.33° C | 69% | 1015.4 hPa | 0 mm | - | 15 W/m² | - |
| 1787777881 | 33.33° C | 71% | 1015.6 hPa | 0 mm | - | 28 W/m² | - |
| 1787777577 | 33.33° C | 73% | 1015.7 hPa | 0 mm | - | 38 W/m² | - |
| 1787777271 | 33.33° C | 71% | 1015.7 hPa | 0 mm | - | 18 W/m² | - |
| 1787776971 | 33.33° C | 69% | 1016 hPa | 0 mm | - | 41 W/m² | - |
| 1787776665 | 33.33° C | 68% | 1015.8 hPa | 0 mm | - | 21 W/m² | - |
| 1787776364 | 33.33° C | 71% | 1015.8 hPa | 0 mm | - | 41 W/m² | - |
| 1787776062 | 33.33° C | 70% | 1015.9 hPa | 0 mm | - | 54 W/m² | - |
| 1787775757 | 33.33° C | 71% | 1015.9 hPa | 0 mm | - | 41 W/m² | - |
| 1787775456 | 33.33° C | 70% | 1016.2 hPa | 0 mm | - | 20 W/m² | - |
| 1787775155 | 33.33° C | 70% | 1016.2 hPa | 0 mm | - | 19 W/m² | - |
* Rain latest hour (hover to see other rain measurements)
** Current wind speed in m/s (hover to see current wind gust speed)